Regional Weather Roundup
Issued by NWS

Home | Current Version | Previous Version | Graphics & Text | Print | Product List | Glossary On
Versions: 1 2 3 4 5 6 7 8 9 10 11 12 13 14 15 16 17 18 19 20 21 22 23 24 25 26 27 28 29 30 31 32 33 34 35 36 37 38 39 40 41 42 43 44 45 46 47 48 49 50
000
ASUS43 KMKX 271859
RWRWI

WISCONSIN REGIONAL WEATHER ROUNDUP
NATIONAL WEATHER SERVICE MILWAUKEE/SULLIVAN WI
100 PM CST TUE JAN 27 2015

NOTE: "FAIR" INDICATES FEW OR NO CLOUDS BELOW 12,000 FEET WITH NO
SIGNIFICANT WEATHER AND/OR OBSTRUCTIONS TO VISIBILITY.

WIZ001-002-006>008-014>016-023>028-272000-
NORTHWEST WISCONSIN

CITY           SKY/WX    TMP DP  RH WIND       PRES   REMARKS
SUPERIOR ARPT  CLOUDY    31  23  73 S5        30.18F WCI  26
ASHLAND        CLOUDY    29  22  75 W5        30.19R WCI  24
HAYWARD        CLOUDY    27  21  78 CALM      30.17S
SIREN          CLOUDY    29  23  77 SW3       30.18F
CUMBERLAND     CLOUDY    28  21  74 CALM      30.17S
RICE LAKE      CLOUDY    29  22  76 S3        30.20R
CHETEK         CLOUDY    28  22  77 CALM      30.19R
LADYSMITH      CLOUDY    28  22  78 S3        30.18S
EAU CLAIRE     CLOUDY    30  19  63 CALM      30.20R
MENOMONIE      CLOUDY    30  23  74 SE3       30.20S
NEW RICHMOND   CLOUDY    30  24  77 S5        30.18F WCI  25
OSCEOLA        CLOUDY    31  24  73 SE5       30.21F WCI  27
$$

WIZ003>005-009-010-017-018-272000-
NORTH CENTRAL WISCONSIN

CITY           SKY/WX    TMP DP  RH WIND       PRES   REMARKS
MANITOWISH WTR CLOUDY    23  19  87 S3        30.13S
ARBOR VITAE    CLOUDY    24  20  83 CALM      30.14S
WOODRUFF       CLOUDY    24  20  83 CALM      30.14S
RHINELANDER    CLOUDY    23  17  78 S6        30.15S WCI  16
EAGLE RIVER    CLOUDY    23  17  78 CALM      30.14R
LAND O LAKES   CLOUDY    24  19  81 S6        30.14S WCI  17
PHILLIPS       CLOUDY    24  20  85 CALM      30.14S
TOMAHAWK       CLOUDY    24  20  86 CALM      30.16S
MEDFORD        CLOUDY    24  21  88 S5        30.15S FOG     WCI  18
MERRILL        CLOUDY    24  20  85 SE3       30.17S
$$

WIZ029-030-035-036-043>047-272000-
CENTRAL WISCONSIN

CITY           SKY/WX    TMP DP  RH WIND       PRES   REMARKS
WAUSAU         CLOUDY    24  20  84 CALM      30.16F
MOSINEE        CLOUDY    25  21  86 SE3       30.18S
MARSHFIELD     CLOUDY    25  21  85 SE3       30.17S FOG
STEVENS POINT  CLOUDY    22  20  90 SE3       30.19S
WAUPACA        CLOUDY    29  19  66 CALM      30.21S
WAUTOMA        NOT AVBL
WISC RAPIDS    CLOUDY    25  21  85 SE5       30.21S WCI  19
CAMP DOUGLAS   NOT AVBL
$$

WIZ011>013-019>022-031-037>040-048>050-272000-
NORTHEAST WISCONSIN

CITY           SKY/WX    TMP DP  RH WIND       PRES   REMARKS
ANTIGO         FLURRIES  22  19  87 CALM      30.16S
SHAWANO        CLOUDY    28  18  64 E5        30.22S WCI  23
OCONTO         CLOUDY    26  15  63 E6        30.22S WCI  19
STURGEON BAY   CLOUDY    23  18  80 N7        30.23S WCI  15
GREEN BAY      CLOUDY    26  16  65 NE9       30.22S WCI  17
MANITOWOC      NOT AVBL
APPLETON       PTSUNNY   27  16  63 CALM      30.20F
CLINTONVILLE   CLOUDY    28  18  64 CALM      30.21S
OSHKOSH        CLOUDY    28  17  63 N6        30.20S WCI  22
$$

WIZ032>034-041-042-053>061-272000-
SOUTHWEST WISCONSIN

CITY           SKY/WX    TMP DP  RH WIND       PRES   REMARKS
LA CROSSE      CLOUDY    31  20  63 CALM      30.20F
SPARTA         CLOUDY    28  22  76 CALM      30.21S
VIROQUA        CLOUDY    27  22  82 NE6       30.17S WCI  20
BOSCOBEL       CLOUDY    30  21  69 CALM      30.21S
PRAIRIE DU CHI CLOUDY    30  20  67 NE3       30.20S
PLATTEVILLE    CLOUDY    28  23  82 NE6       30.18S WCI  21
$$

WIZ056-057-062-063-064-067-068-272000-
SOUTH CENTRAL WISCONSIN

CITY           SKY/WX    TMP DP  RH WIND       PRES   REMARKS
REEDSBURG      CLOUDY    26  23  88 CALM      30.19S
BARABOO/DELLS  CLOUDY    26  24  93 CALM      30.19S FOG
LONE ROCK      NOT AVBL
MINERAL POINT  CLOUDY    30  23  74 CALM      30.17S
MADISON        LGT SNOW  28  23  81 E5        30.18S WCI  23
MIDDLETON      CLOUDY    29  27  93 CALM      30.19S
WATERTOWN      CLOUDY    28  19  68 E6        30.18R WCI  22
MONROE         CLOUDY    28  28 100 CALM      30.16F FOG
JANESVILLE     CLOUDY    30  25  80 E6        30.18R WCI  24
$$

WIZ051-052-058>065-066-070>072-272000-
SOUTHEAST WISCONSIN

CITY           SKY/WX    TMP DP  RH WIND       PRES   REMARKS
MILWAUKEE      MOSUNNY   29  15  56 NE9       30.19S WCI  20
WAUKESHA       NOT AVBL
MILWAUKEE/TIMM SUNNY     30  14  51 E3        30.20S
RACINE         SUNNY     29  16  58 NE9       30.20S WCI  20
BURLINGTON     PTSUNNY   29  17  60 E9        30.17F WCI  20
KENOSHA        MOSUNNY   31  18  58 NE7       30.18S WCI  24
FOND DU LAC    CLOUDY    29  17  61 NE6       30.19F WCI  23
SHEBOYGAN      CLOUDY    27  19  72 E7        30.20S WCI  19
WEST BEND      MOSUNNY   30  16  55 N8        30.18F WCI  23
JUNEAU         CLOUDY    27  19  70 E5        30.19S WCI  22
$$

LSZ147-162-272000-
LAKE SUPERIOR

STATION/POSITION TIME  TEMP    WIND        PRES    WAVE
                       AIR SEA DIR/SP/G            HT/PER
                 (UTC) (F)     (DEG/KT/KT) (MB)    (FT/S)
DEVILS ISLAND    1800   29     220/  6/  7 1022.8R
PORT WING        1840   29     290/  3/  4 1022.4S
SAXON HARBOR     1800   29        CALM     1022.0S
$$

LMZ867-665-643>646-272000-
LAKE MICHIGAN

STATION/POSITION TIME  TEMP    WIND        PRES    WAVE
                       AIR SEA DIR/SP/G            HT/PER
                 (UTC) (F)     (DEG/KT/KT) (MB)    (FT/S)
NORTHPORT PIER   1800   26      50/  6/  8 1023.7S
SISTER BAY       1813   33     140/  8/ 10   N/A
KEWAUNEE LAKESHO 1800   26      50/  6/  8 1022.3R
SHEBOYGAN LAKESH 1800   26      30/  6/  7 1024.1R
PORT WASHINGTON  1800   29      60/  7/  9 1023.4S
MILWAUKEE LAKESH 1800   28      50/  8/ 10   N/A
KENOSHA   LAKESH 1800   27      50/  8/ 11 1022.4R
$$

TC  - TEMPERATURE IN CELSIUS
VSB - VISIBILITY IN STATUTE MILES
WCI - WIND CHILL INDEX
HX  - HEAT INDEX



USA.gov is the U.S. government's official web portal to all federal, state and local government web resources and services.